Date String (YYYY-MM-DD hh:mm:ss) UTC,Instrument flags,absolute air pressure of the measurement (hPa),sample flow rate (lpm),inlet stack bypass flow (lpm),air temperature of the measurement (°C),ambient temperature measured by the external sensor (°C),aerosol sample conditioner tube jacket temperature (°C),OPC LED temperature (°C),internal box temperature (°C),relative humidity of the measurement (%),span deviation,mass concentration of particles derived from Lorenz-Mie calculation of OPC scattering (μg/m³),mass concentration of particles derived from Lorenz-Mie calculation of OPC scattering (μg/m³),mass concentration of particles derived from Lorenz-Mie calculation of OPC scattering (μg/m³)
DateTimeUTC,F1_M11,P_M11,Q1_M11,Q2_M11,T1_M11,T2_M11,T3_M11,T4_M11,T5_M11,U1_M11,ZSPAN_M11,X0_M11,X2_M11,X1_M11
2023-08-03 21:00:00,SystemResetWarning,0833.0,5.00,000.00,034.9,025.5,000.0,041.7,031.9,32.3,0000.0,0015.16,0004.77,0003.89
2023-08-03 21:01:00,SystemResetWarning,0833.0,5.01,000.00,034.7,025.9,000.0,041.7,031.9,31.9,0000.0,0014.56,0004.82,0003.91
2023-08-03 21:02:00,SystemResetWarning,0833.0,5.01,000.00,034.5,026.4,000.0,041.8,032.0,31.7,0000.0,0014.77,0004.90,0003.93
2023-08-03 21:03:00,SystemResetWarning,0833.1,4.98,000.00,034.4,026.8,000.0,041.8,032.1,34.7,0000.0,0014.93,0004.93,0003.93
2023-08-03 21:04:00,SystemResetWarning,0833.1,5.03,000.00,034.3,027.2,000.0,041.8,032.2,32.6,0000.0,0015.07,0005.02,0003.95
2023-08-03 21:05:00,SystemResetWarning,0833.0,4.97,000.00,034.3,027.5,000.0,041.8,032.3,32.5,0000.0,0016.21,0005.08,0003.96
2023-08-03 21:06:00,SystemResetWarning,0833.1,5.01,000.00,034.2,027.8,000.0,041.8,032.3,32.5,0000.0,0016.01,0005.13,0003.98
2023-08-03 21:07:00,SystemResetWarning,0833.2,5.01,000.00,034.3,027.3,000.0,041.7,032.3,31.5,0000.0,0015.95,0005.20,0003.97
2023-08-03 21:08:00,SystemResetWarning,0833.1,4.98,000.00,034.2,025.9,000.0,041.5,032.1,32.6,0000.0,0016.02,0005.24,0003.96
2023-08-03 21:09:00,SystemResetWarning,0833.0,5.01,000.00,034.1,025.4,000.0,041.3,032.0,32.2,0000.0,0017.01,0005.24,0003.93
2023-08-03 21:10:00,SystemResetWarning,0833.0,5.01,000.00,033.9,025.5,000.0,041.3,031.7,32.9,0000.0,0016.26,0005.17,0003.87
2023-08-03 21:11:00,SystemResetWarning,0833.0,4.99,000.00,033.6,025.8,000.0,041.3,031.7,34.7,0000.0,0015.34,0005.06,0003.81
2023-08-03 21:12:00,SystemResetWarning,0832.9,4.99,000.00,033.5,026.3,000.0,041.3,031.8,36.3,0000.0,0015.50,0005.00,0003.75
2023-08-03 21:13:00,SystemResetWarning,0833.0,5.02,000.00,033.6,026.7,000.0,041.3,032.0,36.3,0000.0,0015.54,0004.90,0003.69
2023-08-03 21:14:00,SystemResetWarning,0833.0,5.00,000.00,033.8,027.1,000.0,041.3,032.2,35.7,0000.0,0015.73,0004.81,0003.66
2023-08-03 21:15:00,SystemResetWarning,0832.9,4.99,000.00,034.0,027.5,000.0,041.2,032.4,33.6,0000.0,0015.12,0004.72,0003.61
2023-08-03 21:16:00,SystemResetWarning,0832.9,5.00,000.00,034.1,027.7,000.0,041.2,032.4,33.8,0000.0,0013.82,0004.64,0003.57
2023-08-03 21:17:00,SystemResetWarning,0833.0,5.00,000.00,034.3,026.7,000.0,041.1,032.3,33.3,0000.0,0013.50,0004.58,0003.52
2023-08-03 21:18:00,SystemResetWarning,0833.3,5.01,000.00,034.3,025.6,000.0,041.0,032.1,32.3,0000.0,0013.51,0004.55,0003.50
2023-08-03 21:19:00,SystemResetWarning,0832.9,5.01,000.00,034.2,025.4,000.0,041.0,032.0,33.6,0000.0,0012.49,0004.40,0003.47
2023-08-03 21:20:00,SystemResetWarning,0833.2,5.00,000.00,033.9,025.6,000.0,041.1,031.8,32.1,0000.0,0011.17,0004.31,0003.45
2023-08-03 21:21:00,SystemResetWarning,0833.0,5.00,000.00,033.7,026.1,000.0,041.1,031.8,32.7,0000.0,0010.50,0004.24,0003.45
2023-08-03 21:22:00,SystemResetWarning,0833.1,5.00,000.00,033.6,026.5,000.0,041.2,031.8,33.0,0000.0,0010.04,0004.23,0003.46
2023-08-03 21:23:00,SystemResetWarning,0833.4,5.00,000.00,033.5,026.9,000.0,041.2,031.9,33.0,0000.0,0009.75,0004.20,0003.46
2023-08-03 21:24:00,SystemResetWarning,0833.3,5.00,000.00,033.4,027.3,000.0,041.2,032.0,33.1,0000.0,0009.86,0004.19,0003.47
2023-08-03 21:25:00,SystemResetWarning,0833.1,5.00,000.00,033.4,027.6,000.0,041.2,032.1,33.6,0000.0,0009.36,0004.18,0003.47
2023-08-03 21:26:00,SystemResetWarning,0833.1,4.99,000.00,033.4,027.5,000.0,041.1,032.1,33.1,0000.0,0009.14,0004.20,0003.47
2023-08-03 21:27:00,SystemResetWarning,0832.8,4.98,000.00,033.3,026.1,000.0,040.9,032.0,33.3,0000.0,0009.14,0004.17,0003.46
2023-08-03 21:28:00,SystemResetWarning,0832.7,5.02,000.00,033.2,025.3,000.0,040.7,031.8,33.8,0000.0,0009.13,0004.13,0003.47
2023-08-03 21:29:00,SystemResetWarning,0832.7,5.01,000.00,033.1,025.3,000.0,040.7,031.6,34.1,0000.0,0008.53,0004.07,0003.48
2023-08-03 21:30:00,SystemResetWarning,0832.7,4.99,000.00,032.8,025.7,000.0,040.7,031.4,34.5,0000.0,0008.19,0004.05,0003.48
2023-08-03 21:31:00,SystemResetWarning,0832.7,5.02,000.00,032.7,026.1,000.0,040.7,031.5,35.2,0000.0,0008.31,0004.08,0003.49
2023-08-03 21:32:00,SystemResetWarning,0832.7,4.96,000.00,032.7,026.6,000.0,040.6,031.7,35.0,0000.0,0008.43,0004.12,0003.50
2023-08-03 21:33:00,SystemResetWarning,0832.6,5.04,000.00,032.8,027.0,000.0,040.6,031.9,35.8,0000.0,0008.49,0004.15,0003.50
2023-08-03 21:34:00,SystemResetWarning,0832.7,4.98,000.00,033.0,027.4,000.0,040.6,032.0,33.1,0000.0,0008.35,0004.14,0003.50
2023-08-03 21:35:00,SystemResetWarning,0832.7,5.00,000.00,033.1,027.6,000.0,040.6,032.1,33.2,0000.0,0009.10,0004.15,0003.49
2023-08-03 21:36:00,SystemResetWarning,0832.6,5.01,000.00,033.2,026.9,000.0,040.5,032.1,33.1,0000.0,0009.35,0004.16,0003.48
2023-08-03 21:37:00,SystemResetWarning,0832.5,4.98,000.00,033.2,025.6,000.0,040.4,031.8,32.9,0000.0,0009.88,0004.20,0003.49
2023-08-03 21:38:00,SystemResetWarning,0832.5,5.01,000.00,033.2,025.2,000.0,040.3,031.6,33.5,0000.0,0009.99,0004.21,0003.50
2023-08-03 21:39:00,SystemResetWarning,0832.5,5.01,000.00,032.9,025.4,000.0,040.3,031.4,33.7,0000.0,0010.04,0004.24,0003.51
2023-08-03 21:40:00,SystemResetWarning,0832.6,4.99,000.00,032.8,025.8,000.0,040.4,031.4,34.1,0000.0,0011.31,0004.31,0003.52
2023-08-03 21:41:00,SystemResetWarning,0832.5,4.99,000.00,032.7,026.3,000.0,040.4,031.5,34.7,0000.0,0011.52,0004.39,0003.53
2023-08-03 21:42:00,SystemResetWarning,0832.5,5.03,000.00,032.6,026.8,000.0,040.4,031.6,34.8,0000.0,0011.44,0004.40,0003.54
2023-08-03 21:43:00,SystemResetWarning,0832.5,4.97,000.00,032.6,027.1,000.0,040.4,031.7,34.0,0000.0,0011.43,0004.40,0003.55
2023-08-03 21:44:00,SystemResetWarning,0832.4,5.02,000.00,032.7,027.5,000.0,040.4,031.8,34.7,0000.0,0011.50,0004.41,0003.56
2023-08-03 21:45:00,SystemResetWarning,0832.5,4.99,000.00,032.7,027.5,000.0,040.4,031.9,34.2,0000.0,0011.90,0004.47,0003.58
2023-08-03 21:46:00,SystemResetWarning,0832.4,5.02,000.00,032.8,026.3,000.0,040.2,031.8,34.9,0000.0,0011.90,0004.51,0003.62
2023-08-03 21:47:00,SystemResetWarning,0832.4,4.99,000.00,032.8,025.3,000.0,040.1,031.6,34.0,0000.0,0011.85,0004.58,0003.66
2023-08-03 21:48:00,SystemResetWarning,0832.3,5.00,000.00,032.7,025.3,000.0,040.0,031.4,34.1,0000.0,0011.43,0004.56,0003.67
2023-08-03 21:49:00,SystemResetWarning,0832.3,5.01,000.00,032.5,025.6,000.0,040.1,031.2,34.6,0000.0,0011.58,0004.57,0003.68
2023-08-03 21:50:00,SystemResetWarning,0832.2,4.98,000.00,032.4,026.0,000.0,040.1,031.4,35.5,0000.0,0011.48,0004.56,0003.69
2023-08-03 21:51:00,SystemResetWarning,0832.2,5.03,000.00,032.4,026.5,000.0,040.1,031.5,35.5,0000.0,0010.54,0004.58,0003.71
2023-08-03 21:52:00,SystemResetWarning,0832.3,4.98,000.00,032.6,026.9,000.0,040.1,031.7,34.5,0000.0,0010.41,0004.53,0003.72
2023-08-03 21:53:00,SystemResetWarning,0832.3,4.99,000.00,032.7,027.3,000.0,040.2,031.8,34.3,0000.0,0010.64,0004.53,0003.73
2023-08-03 21:54:00,SystemResetWarning,0832.2,5.00,000.00,032.8,027.6,000.0,040.2,031.9,34.9,0000.0,0010.72,0004.57,0003.73
2023-08-03 21:55:00,SystemResetWarning,0832.2,5.03,000.00,032.9,027.2,000.0,040.1,031.9,34.6,0000.0,0010.69,0004.56,0003.74
2023-08-03 21:56:00,SystemResetWarning,0832.2,4.97,000.00,033.0,025.8,000.0,040.0,031.7,34.1,0000.0,0010.44,0004.53,0003.72
2023-08-03 21:57:00,SystemResetWarning,0832.1,5.01,000.00,033.0,025.2,000.0,040.0,031.6,35.5,0000.0,0009.40,0004.48,0003.69
2023-08-03 21:58:00,SystemResetWarning,0832.2,5.03,000.00,033.0,025.4,000.0,040.0,031.4,34.6,0000.0,0008.98,0004.42,0003.66
2023-08-03 21:59:00,SystemResetWarning,0832.2,4.96,000.00,033.0,025.7,000.0,040.1,031.5,33.5,0000.0,0008.74,0004.36,0003.64
